Weather Roundup
Issued by NWS

Home | Current Version | Previous Version | Graphics & Text | Print | Product List | Glossary Off
Versions: 1 2 3 4 5 6 7 8 9 10 11 12 13 14 15 16 17 18 19 20 21 22 23 24 25 26 27 28 29 30 31 32 33 34 35 36 37 38 39 40 41 42 43 44 45 46 47 48 49 50

000
NZUS93 KARX 140110
HRRWXR

CURRENT HOURLY OBSERVATIONS ACROSS
MUCH OF THE UPPER MISSISSIPPI VALLEY
NATIONAL WEATHER SERVICE LA CROSSE WI
700 PM CST WED DEC 13 2017


...SOUTHEAST MINNESOTA...


CITY           SKY/WX    TMP DP  RH WIND       PRES   REMARKS
ROCHESTER      CLOUDY    22  18  85 N18       29.78R WCI   7
ROCHESTER/MAYO CLOUDY    23  18  78 NW15G24   29.80R WCI  10
WINONA         CLOUDY    23  16  74 N6        29.83R WCI  16
AUSTIN         CLOUDY    25  18  74 N13G22    29.80R WCI  13
ALBERT LEA     CLOUDY    25  18  74 N16G24    29.80R WCI  12
DODGE CENTER   CLOUDY    21  18  86 N20       29.79R WCI   6
PRESTON        CLOUDY    22  17  78 N16G22    29.77R WCI   9
OWATONNA       CLOUDY    25  19  80 N17       29.83R WCI  11
FARIBAULT      CLOUDY    25  18  74 NW13G18   29.85R WCI  13
$$

...ELSEWHERE IN MINNESOTA...


CITY           SKY/WX    TMP DP  RH WIND       PRES   REMARKS
MINNEAPOLIS    CLOUDY    23  17  78 NW13      29.87R WCI  11
INTNL FALLS    CLOUDY    17  11  77 N5        29.90R WCI  10
DULUTH         FLURRIES  17  13  84 N10       29.84R WCI   5
RED WING       MOCLDY    25  12  58 N9        29.84R WCI  15
REDWOOD FALLS  CLOUDY    27  19  72 N14G24    29.89R WCI  16
MANKATO        FLURRIES  24  19  81 N21       29.86R WCI   9
WORTHINGTON    CLOUDY    31  25  78 NW21G28   29.86R WCI  18
FAIRMONT       CLOUDY    27  21  78 N23G29    29.84R WCI  12
$$

...SOUTHWEST WISCONSIN...


CITY           SKY/WX    TMP DP  RH WIND       PRES   REMARKS
LA CROSSE      CLOUDY    23  14  68 N13       29.79R WCI  11
PRAIRIE DU CHI CLOUDY    26  15  63 NW16G23   29.76R WCI  13
BOSCOBEL       CLOUDY    25  13  60 N13G24    29.75R WCI  14
LONE ROCK      CLOUDY    24  15  68 NW15G22   29.72R WCI  11
PLATTEVILLE    PTCLDY    25  16  68 NW24G33   29.68R WCI   9
FORT MC COY    PTCLDY    20  14  78 N8        29.78R WCI  10
CAMP DOUGLAS   FLURRIES  19  14  79 NW9       29.73R WCI   9
MAUSTON-NEW LI FLURRIES  20  16  82 NW12G20   29.72R WCI   8
VIROQUA        CLOUDY    20  15  79 N18       29.71R WCI   5
WIS DELLS      CLOUDY    21  17  83 NW10      29.68R WCI  10
$$

...ELSEWHERE IN WISCONSIN...


CITY           SKY/WX    TMP DP  RH WIND       PRES   REMARKS
MILWAUKEE      LGT SNOW  29  25  85 N21G32    29.53R FOG     WCI  16
MADISON        CLOUDY    23  17  78 NW14G21   29.64R WCI  11
GREEN BAY      LGT SNOW  20  14  77 N23       29.68R WCI   3
EAU CLAIRE     CLEAR     16  11  80 N7        29.81R WCI   6
BLACK RVR FLS  MOCLDY    20  12  72 N8        29.78R WCI  10
MEDFORD        CLEAR     14  10  85 N8        29.73R WCI   3
WAUSAU         CLOUDY    17  13  84 N8        29.72R WCI   7
WIS RAPIDS     LGT SNOW  20  16  84 N12       29.73R FOG     WCI   8
MARSHFIELD     PTCLDY    18  13  80 N10       29.72R WCI   6
RICE LAKE      CLEAR     15  11  86 CALM      29.83R
$$

...NORTHEAST IOWA...


CITY           SKY/WX    TMP DP  RH WIND       PRES   REMARKS
WATERLOO       CLOUDY    28  20  71 NW21G39   29.78R WCI  15
DUBUQUE        CLOUDY    25  18  74 N21G31    29.70R WCI  11
DECORAH        CLOUDY    23  18  80 N21       29.74R WCI   8
MASON CITY     CLOUDY    26  20  77 N22       29.82R WCI  12
CHARLES CITY   CLOUDY    27  19  74 N23G30    29.78R WCI  12
OELWEIN        CLOUDY    25  19  80 N21G32    29.76R WCI  10
$$

...ELSEWHERE IN IOWA...


CITY           SKY/WX    TMP DP  RH WIND       PRES   REMARKS
DES MOINES     CLOUDY    36  23  59 N21G40    29.84R WCI  25
IOWA CITY      CLOUDY    34  24  67 NW18G35   29.76R WCI  23
FORT DODGE     CLOUDY    33  20  58 NW22G31   29.84R WCI  21
MARSHALLTOWN   CLOUDY    31  23  72 NW21G33   29.79R WCI  18
CEDAR RAPIDS   CLOUDY    31  24  75 N29G37    29.74R WCI  16
$$

...NORTHERN ILLINOIS...


CITY           SKY/WX    TMP DP  RH WIND       PRES   REMARKS
CHICAGO-OHARE  CLOUDY    29  18  63 NW28G38   29.52R WCI  14
CHICAGO-MIDWAY CLOUDY    30  20  66 NW26G35   29.52R WCI  16
MOLINE         CLOUDY    34  22  61 NW30G38   29.69R WCI  20
ROCKFORD       FLURRIES  27  16  63 NW18G29   29.63R WCI  14
PEORIA         CLOUDY    36  27  69 NW21G39   29.67R WCI  25
$$

NOTE: "FAIR" INDICATES FEW OR NO CLOUDS BELOW 12,000 FEET WITH NO
SIGNIFICANT WEATHER AND/OR OBSTRUCTIONS TO VISIBILITY. WIND
SPEEDS ARE IN MILES-PER-HOUR.




USA.gov is the U.S. government's official web portal to all federal, state and local government web resources and services.